Sidney, NE

7:53 PM MDT on September 25, 2017 (GMT -0600)
Sidney Municipal

Weather History for KSNY - February, 2013

Change the Weather History Date:

Wednesday, February 20, 2013

  Actual Average Record
Temperature  
Mean Temperature 18 °F 33 °F  
Max Temperature 21 °F 46 °F 69 °F (1981)
Min Temperature 15 °F 20 °F -3 °F (1953)
Degree Days  
Heating Degree Days 47 32  
Month to date heating degree days 642 679  
Since 1 July heating degree days 4345 4336  
Cooling Degree Days 0 0  
Month to date cooling degree days 0 0  
Year to date cooling degree days 0 0  
Moisture  
Dew Point 13 °F    
Average Humidity 76    
Maximum Humidity 91    
Minimum Humidity 61    
Precipitation  
Precipitation T in 0.01 in 0.36 in (1968)
Month to date precipitation 0.01 0.19  
Year to date precipitation 0.18 0.39  
Sea Level Pressure  
Sea Level Pressure 29.87 in    
Wind  
Wind Speed 18 mph (SE)    
Max Wind Speed 24 mph    
Max Gust Speed 32 mph    
Visibility 6 miles    
Events Fog , Snow    
T = Trace of Precipitation, MM = Missing Value Source: NWS Daily Summary

Daily Weather History Graph

Daily Weather History Graph

Search for Another Location

Airport or City:

Trip Planner

Search our weather history database for the weather conditions in past years. The results will help you decide how hot, cold, wet, or windy it might be!

Date:

Astronomy

Feb. 20, 2013 Rise Set
Actual Time 6:39 AM MST 5:32 PM MST
Civil Twilight 6:11 AM MST 6:00 PM MST
Nautical Twilight 5:39 AM MST 6:32 PM MST
Astronomical Twilight 5:07 AM MST 7:04 PM MST
Moon 12:54 PM MST (2/20) 3:02 AM MST (2/20)
Length of Visible Light 11h 49m
Length of Day
10h 53m
Waxing Gibbous, 76% of the Moon is Illuminated
Feb 20
Waxing Gibbous
Feb 25
Full
Mar 4
Last Quarter
Mar 11
New
Mar 19
First Quarter

Hourly Weather History & Observations

Time (MST) Temp. Windchill Dew Point Humidity Pressure Visibility Wind Dir Wind Speed Gust Speed Precip Events Conditions
12:53 AM 19.0 °F 2.4 °F 10.0 °F 68% 29.99 in 10.0 mi SE 21.9 mph 31.1 mph N/A   Clear
1:53 AM 18.0 °F 2.6 °F 10.0 °F 71% 29.97 in 10.0 mi SE 17.3 mph - N/A   Clear
2:53 AM 18.0 °F 3.1 °F 10.0 °F 71% 29.95 in 10.0 mi SE 16.1 mph 23.0 mph N/A   Clear
3:53 AM 17.1 °F 1.0 °F 9.0 °F 71% 29.93 in 10.0 mi SE 18.4 mph - N/A   Partly Cloudy
5:53 AM 16.0 °F 2.3 °F 7.0 °F 68% 29.97 in 10.0 mi SE 12.7 mph - N/A   Scattered Clouds
6:53 AM 16.0 °F 1.7 °F 7.0 °F 68% 29.98 in 10.0 mi SE 13.8 mph - N/A   Overcast
7:53 AM 16.0 °F 1.7 °F 6.1 °F 65% 30.00 in 10.0 mi SE 13.8 mph - N/A   Overcast
8:53 AM 17.1 °F 0.6 °F 7.0 °F 65% 29.99 in 10.0 mi SE 19.6 mph - N/A   Overcast
9:53 AM 19.0 °F 2.7 °F 12.0 °F 74% 29.98 in 10.0 mi SE 20.7 mph - N/A   Overcast
10:42 AM 19.4 °F 3.2 °F 15.8 °F 86% 29.84 in 10.0 mi SE 20.7 mph - N/A   Overcast
10:53 AM 19.9 °F 4.3 °F 15.1 °F 81% 29.98 in 10.0 mi SE 19.6 mph - N/A   Overcast
11:53 AM 19.9 °F 5.2 °F 17.1 °F 89% 29.97 in 10.0 mi SE 17.3 mph - N/A   Overcast
12:53 PM 21.0 °F 6.2 °F 17.1 °F 85% 29.94 in 10.0 mi SSE 18.4 mph - N/A   Overcast
1:53 PM 21.0 °F 7.1 °F 17.1 °F 85% 29.92 in 10.0 mi SE 16.1 mph 24.2 mph N/A   Overcast
2:53 PM 21.0 °F 6.2 °F 17.1 °F 85% 29.91 in 10.0 mi SE 18.4 mph 21.9 mph N/A   Overcast
3:43 PM 21.2 °F 6.4 °F 17.6 °F 86% 29.77 in 10.0 mi SE 18.4 mph 24.2 mph N/A   Overcast
3:53 PM 21.9 °F 8.2 °F 17.1 °F 82% 29.91 in 10.0 mi SE 16.1 mph - N/A   Overcast
4:43 PM 21.2 °F 8.3 °F 17.6 °F 86% 29.77 in 9.0 mi SE 13.8 mph 23.0 mph 0.00 in   Overcast
4:53 PM 21.0 °F 7.1 °F 17.1 °F 85% 29.92 in 6.0 mi SE 16.1 mph 21.9 mph 0.00 in Snow Light Snow
5:16 PM 21.2 °F 7.3 °F 17.6 °F 86% 29.77 in 4.0 mi SE 16.1 mph - 0.00 in   Overcast
6:12 PM 19.4 °F 5.0 °F 17.6 °F 93% 29.77 in 10.0 mi SE 16.1 mph 24.2 mph N/A   Overcast
6:35 PM 19.4 °F 3.6 °F 15.8 °F 86% 29.78 in 10.0 mi SE 19.6 mph 23.0 mph N/A   Overcast
6:53 PM 19.9 °F 5.7 °F 16.0 °F 85% 29.94 in 8.0 mi ESE 16.1 mph - N/A   Overcast
7:08 PM 19.4 °F 4.5 °F 15.8 °F 86% 29.79 in 1.8 mi ESE 17.3 mph - 0.00 in Snow Light Snow
7:22 PM 19.4 °F 5.5 °F 15.8 °F 86% 29.79 in 3.0 mi ESE 15.0 mph - 0.00 in Snow Light Snow
7:29 PM 19.4 °F 4.1 °F 15.8 °F 86% 29.79 in 2.0 mi SE 18.4 mph - 0.00 in Snow Light Snow
7:36 PM 19.4 °F 4.1 °F 15.8 °F 86% 29.79 in 1.2 mi SE 18.4 mph 24.2 mph 0.00 in Snow Light Snow
7:49 PM 17.6 °F 2.7 °F 15.8 °F 93% 29.79 in 3.0 mi ESE 16.1 mph 24.2 mph 0.00 in Snow Light Snow
7:53 PM 18.0 °F 3.1 °F 15.1 °F 88% 29.96 in 4.0 mi ESE 16.1 mph - 0.00 in Snow Light Snow
8:53 PM 17.1 °F 0.6 °F 12.9 °F 84% 29.97 in 6.0 mi SE 19.6 mph 25.3 mph 0.00 in   Overcast
8:59 PM 17.6 °F 2.2 °F 12.2 °F 79% 29.81 in 1.5 mi ESE 17.3 mph 25.3 mph 0.00 in Snow Light Snow
9:02 PM 17.6 °F 2.2 °F 12.2 °F 79% 29.81 in 0.8 mi ESE 17.3 mph - 0.00 in Snow Light Snow
9:13 PM 17.6 °F 2.7 °F 12.2 °F 79% 29.81 in 1.0 mi ESE 16.1 mph - 0.00 in Snow Light Snow
9:17 PM 17.6 °F 3.2 °F 12.2 °F 79% 29.81 in 2.0 mi ESE 15.0 mph - 0.00 in Snow Light Snow
9:29 PM 17.6 °F 2.7 °F 12.2 °F 79% 29.81 in 3.0 mi ESE 16.1 mph - 0.00 in Snow Light Snow
9:53 PM 17.1 °F 3.0 °F 12.9 °F 84% 29.97 in 1.8 mi ESE 13.8 mph - 0.00 in Snow Light Snow
9:57 PM 15.8 °F -0.2 °F 12.2 °F 86% 29.81 in 1.0 mi ESE 17.3 mph - 0.01 in Snow Light Snow
10:04 PM 15.8 °F 1.4 °F 12.2 °F 86% 29.81 in 0.5 mi East 13.8 mph - 0.01 in Fog , Snow Snow
10:08 PM 15.8 °F 0.9 °F 12.2 °F 86% 29.81 in 1.0 mi ESE 15.0 mph - 0.01 in Snow Light Snow
10:11 PM 15.8 °F 0.3 °F 12.2 °F 86% 29.81 in 2.5 mi ESE 16.1 mph - 0.01 in Snow Light Snow
10:18 PM 15.8 °F 2.1 °F 12.2 °F 86% 29.81 in 3.0 mi ESE 12.7 mph - 0.01 in Snow Light Snow
10:27 PM 15.8 °F 2.1 °F 12.2 °F 86% 29.81 in 2.0 mi ESE 12.7 mph - 0.01 in Snow Light Snow
10:39 PM 15.8 °F 2.1 °F 12.2 °F 86% 29.81 in 3.0 mi ESE 12.7 mph - 0.01 in Snow Light Snow
10:51 PM 15.8 °F 3.4 °F 12.2 °F 86% 29.80 in 2.0 mi ESE 10.4 mph - 0.01 in Snow Light Snow
10:53 PM 16.0 °F 4.4 °F 12.9 °F 88% 29.96 in 2.0 mi ESE 9.2 mph - 0.01 in Snow Light Snow
11:04 PM 15.8 °F 2.7 °F 12.2 °F 86% 29.80 in 2.5 mi East 11.5 mph - 0.00 in Snow Light Snow
11:12 PM 15.8 °F 1.4 °F 12.2 °F 86% 29.80 in 2.0 mi East 13.8 mph - 0.00 in Snow Light Snow
11:20 PM 15.8 °F 1.4 °F 12.2 °F 86% 29.80 in 1.5 mi ESE 13.8 mph - 0.00 in Snow Light Snow
11:53 PM 16.0 °F 2.3 °F 12.0 °F 84% 29.95 in 2.0 mi ESE 12.7 mph - 0.00 in Snow Light Snow